Location: *
(53.4003°S, 165.3236°W)
Time: 01:53:16
(UTC+00:00)

Cosmos 1725 Rocket - Pass Details

Date: 11 December 2023
Orbit: 962 x 989 km, 82.9° (Epoch: 24 February)

Event Time Altitude Azimuth Distance (km) Brightness Sun altitude
Rises 12:31:41 0° 192° (SSW) 3,746 8.1 -10.7°
Reaches altitude 10° 12:34:14 10° 194° (SSW) 2,791 7.3 -10.6°
Maximum altitude 12:40:38 72° 276° (W) 1,051 4.1 -10.2°
Drops below altitude 10° 12:46:55 10° 359° (N) 2,750 5.8 -9.8°
Enters shadow 12:47:11 - 359° (N) 2,847 5.9 -9.8°
